POLYTECH-UNIVERSE 3 (R*)

Last updated on Sun Aug 09 2026 00:03:16 GMT+0000 (Coordinated Universal Time)

1 57191U 23091AB 26220.56655036 .00002419 00000+0 11678-3 0 9997 2 57191 97.5013 278.0190 0013808 310.8001 49.2035 15.19559358171902
UTC large
Height (km)
Speed (km/s)
/
Latitude / Longitude
Inclination (degrees)
Orbital Period (minutes)
Azimuth
Elevation
Range (km)
Doppler Factor

Next 0 passes for location: London (51.5072 / 0.1276)

No passes found over London.
POLYTECH-UNIVERSE 3 (R*)